Weather Roundup
Issued by NWS

Home | Current Version | Previous Version | Graphics & Text | Print | Product List | Glossary Off
Versions: 1 2 3 4 5 6 7 8 9 10 11 12 13 14 15 16 17 18 19 20 21 22 23 24 25 26 27 28 29 30 31 32 33 34 35 36 37 38 39 40 41 42 43 44 45 46 47 48 49 50

000
NZUS93 KARX 190459
HRRWXR

CURRENT HOURLY OBSERVATIONS ACROSS
MUCH OF THE UPPER MISSISSIPPI VALLEY
NATIONAL WEATHER SERVICE LA CROSSE WI
1200 AM CDT SAT AUG 19 2017


...SOUTHEAST MINNESOTA...


CITY           SKY/WX    TMP DP  RH WIND       PRES   REMARKS
ROCHESTER      FAIR      58  56  93 SE3       29.96S
ROCHESTER/MAYO FAIR      62  60  95 CALM      29.95S
WINONA         FAIR      61  59  94 CALM      29.94S
AUSTIN         FAIR      57  55  94 CALM      29.94S
ALBERT LEA     CLOUDY    64  63  94 CALM      29.94S
DODGE CENTER   FAIR      57  55  94 CALM      29.95S
PRESTON        FAIR      58  55  92 CALM      29.96S
OWATONNA       FAIR      61  57  88 CALM      29.93F
FARIBAULT        N/A     57  57 100 CALM      29.94R FOG
$$

...ELSEWHERE IN MINNESOTA...


CITY           SKY/WX    TMP DP  RH WIND       PRES   REMARKS
MINNEAPOLIS    MOCLDY    66  60  81 CALM      29.92S
INTNL FALLS    FAIR      58  56  93 SW5       29.83S
DULUTH         FAIR      58  58 100 W7        29.87F
RED WING       FAIR      59  57  94 CALM      29.92S FOG
REDWOOD FALLS  FAIR      58  56  93 NW6       29.92S
MANKATO        FAIR      60  58  92 CALM      29.94S
WORTHINGTON    FAIR      58  57  97 CALM      29.96R
FAIRMONT       FAIR      59  58  96 W3        29.94F
$$

...SOUTHWEST WISCONSIN...


CITY           SKY/WX    TMP DP  RH WIND       PRES   REMARKS
LA CROSSE      FAIR      64  62  93 SE3       29.93S
PRAIRIE DU CHI FAIR      59  57  94 CALM      29.93R
BOSCOBEL       FAIR      59  57  93 CALM      29.93S FOG
LONE ROCK      NOT AVBL
PLATTEVILLE    FAIR      58  58 100 N5        29.94S
FORT MC COY    FAIR      55  55 100 CALM      29.94S
CAMP DOUGLAS   FAIR      59  59 100 W6        29.93R
MAUSTON-NEW LI FAIR      62  60  94 W3        29.93R
VIROQUA        FAIR      60  60 100 NW3       29.95S
WIS DELLS      FAIR      63  60  89 W5        29.93R
$$

...ELSEWHERE IN WISCONSIN...


CITY           SKY/WX    TMP DP  RH WIND       PRES   REMARKS
MILWAUKEE      FAIR      70  60  70 W6        29.89R
MADISON        MOCLDY    64  61  90 NW5       29.92R
GREEN BAY      FAIR      63  63 100 CALM      29.89R
EAU CLAIRE     NOT AVBL
BLACK RVR FLS  FOG       56  56 100 CALM      29.93R VSB<1/4
MEDFORD        CLOUDY    62  61  98 W6        29.91S FOG
WAUSAU         FAIR      62  60  93 NW6       29.90R
WIS RAPIDS     FAIR      64  64 100 W5        29.93R
MARSHFIELD     FAIR      63  60  90 W6        29.92R FOG
RICE LAKE      FOG       58  58  99 CALM      29.93S VSB<1/4
$$

...NORTHEAST IOWA...


CITY           SKY/WX    TMP DP  RH WIND       PRES   REMARKS
WATERLOO       MOCLDY    60  58  92 CALM      29.92S
DUBUQUE        FAIR      61  57  87 CALM      29.94S
DECORAH        FAIR      57  57 100 CALM      29.95R FOG
MASON CITY     FAIR      59  57  93 SE6       29.94F
CHARLES CITY   CLOUDY    61  61 100 CALM      29.94S
OELWEIN        FAIR      59  59 100 NE6       29.94F
$$

...ELSEWHERE IN IOWA...


CITY           SKY/WX    TMP DP  RH WIND       PRES   REMARKS
DES MOINES     CLOUDY    74  66  76 E7        29.91S
IOWA CITY      FAIR      69  60  73 N5        29.93S
FORT DODGE     FAIR      63  57  82 CALM      29.91F
MARSHALLTOWN   MOCLDY    64  62  93 E5        29.91F
CEDAR RAPIDS     N/A     62  60  93 CALM      29.92R
$$

...NORTHERN ILLINOIS...


CITY           SKY/WX    TMP DP  RH WIND       PRES   REMARKS
CHICAGO-OHARE  MOCLDY    72  59  63 NW9       29.89S
CHICAGO-MIDWAY MOCLDY    74  60  61 NW12      29.89R
MOLINE         FAIR      71  61  70 NE5       29.91S
ROCKFORD       FAIR      64  60  87 NW6       29.93R
PEORIA         FAIR      68  65  90 CALM      29.89F
$$

NOTE: "FAIR" INDICATES FEW OR NO CLOUDS BELOW 12,000 FEET WITH NO
SIGNIFICANT WEATHER AND/OR OBSTRUCTIONS TO VISIBILITY. WIND
SPEEDS ARE IN MILES-PER-HOUR.




USA.gov is the U.S. government's official web portal to all federal, state and local government web resources and services.